Miscellaneous Local Product
Issued by NWS North Platte, NE

Home | Current Version | Previous Version | Text Only | Print | Product List | Glossary On
Versions: 1 2 3 4 5 6 7 8 9 10 11 12 13 14 15 16 17 18 19 20 21 22 23 24 25 26 27 28 29 30 31 32 33 34 35 36 37 38 39 40 41 42 43 44 45 46 47 48 49 50
000
AXUS43 KLBF 301410
MISLBF


WESTERN AND NORTH CENTRAL NEBRASKA HOURLY WEATHER ROUNDUP
NATIONAL WEATHER SERVICE NORTH PLATTE NE
900 AM CDT SAT AUG 30 2014

***STATIONS NOT REPORTING VARIABLES SUCH AS SKY/WEATHER OR
PRESSURE ARE PROVIDED BY THE NEBRASKA DEPARTMENT OF
ROADS...RAWS...AND APRS NETWORKS...AND ARE NOT UNDER
NATIONAL WEATHER SERVICE QUALITY CONTROL***

...OBSERVATIONS IN AND NEAR THE EASTERN PANHANDLE OF NEBRASKA...

CITY           SKY/WX    TMP DP  RH WIND       PRES   REMARKS
PINE RIDGE     SUNNY     61  55  81 CALM      29.96S
CHADRON        SUNNY     66  57  72 MISG      29.93F
ALLIANCE       SUNNY     60  56  86 S8        30.00F
SIDNEY         SUNNY     63  57  81 S9        30.05F
WHITECLAY        N/A     61  54  77 S10         N/A
RUSHVILLE        N/A     58  56  94 S14         N/A
GORDON           N/A     60  58  92 S13         N/A
CRESCENT LAKE    N/A     62  57  85 S6          N/A
LISCO            N/A     67  57  69 E7          N/A
BIG SPRINGS      N/A     54  53  96 CALM        N/A
$$

...OBSERVATIONS IN NORTH CENTRAL NEBRASKA...

CITY           SKY/WX    TMP DP  RH WIND       PRES   REMARKS
VALENTINE      CLOUDY    58  57  97 SE7       30.01S
THEDFORD       SUNNY     60  58  93 CALM      30.03S
AINSWORTH      FOG       57  57 100 CALM      30.01F VSB<1/4
O`NEILL        MOSUNNY   60  59  95 CALM      30.00S
ORD            CLOUDY    59  58  96 CALM      30.00S
BROKEN BOW     SUNNY     62  58  86 CALM      30.01F
SPRINGVIEW       N/A     57  56  96 CALM        N/A
ROSE             N/A     64  63  94 MISG        N/A
NEWPORT          N/A     60  58  95 CALM        N/A
COMSTOCK         N/A     67  64  90 CALM        N/A
CHAMBERS         N/A     66  60  82 NW3         N/A
EWING            N/A     62  60  95 NW3         N/A
$$

...OBSERVATIONS IN SOUTHWEST NEBRASKA AND FAR NORTHEAST COLORADO...

CITY           SKY/WX    TMP DP  RH WIND       PRES   REMARKS
WRAY             N/A     62  58  88 CALM      30.04F
HOLYOKE        FAIR      61  57  88 CALM      30.04F
IMPERIAL       SUNNY     62  57  83 CALM      30.04R
OGALLALA       SUNNY     57  57  98 CALM      30.02S
NORTH PLATTE   SUNNY     62  58  86 E3        30.02S
MCCOOK         SUNNY     63  60  90 S3        30.02S
LEXINGTON      SUNNY     63  60  91 NE3       30.01S
PAXTON           N/A     55  53  94 CALM        N/A
SUTHERLAND       N/A     60  58  91 CALM        N/A
BRADY            N/A     62  58  86 CALM        N/A
GOTHENBURG       N/A     61  55  79 CALM        N/A
CALLAWAY         N/A     54  54  99 CALM        N/A
$$

...SOME WEATHER OBSERVATIONS FROM AROUND THE REGION...

CITY           SKY/WX    TMP DP  RH WIND       PRES   REMARKS
DENVER         MOSUNNY   62  44  51 S9        30.10S
LARAMIE        SUNNY     54  43  66 S7        30.18S
CHEYENNE       SUNNY     56  48  74 SW5       30.11F
SCOTTSBLUFF    MOSUNNY   63  56  78 SE7       30.00F
RAPID CITY     SUNNY     57  56  96 SE10      29.92F
PIERRE         SUNNY     57  55  93 E3        29.96S
WINNER         FOG       56  55  97 SW6       29.99S VSB<1/4
SIOUX FALLS    CLOUDY    65  62  90 NW9       29.92S
OMAHA          CLOUDY    66  64  93 NW9       29.94R FOG
GRAND ISLAND   SUNNY     66  60  81 N7        30.00S
KANSAS CITY    MOSUNNY   72  68  87 NW5       29.94R
WICHITA        MOSUNNY   74  68  81 N5        29.97R
HAYS           SUNNY     70  57  64 E6        30.01R
LIBERAL        CLOUDY    70  55  60 CALM      30.07R
GOODLAND       SUNNY     62  58  86 W6        30.06S
$$



USA.gov is the U.S. government's official web portal to all federal, state and local government web resources and services.